Location: Bégole
(43.1574°N, 0.3291°E)
Time: 21:09:23
(UTC+00:00)

deb Delta 89 - Visible Passes

Search period start: 21 February 2024 00:00
Search period end: 02 March 2024 00:00
Orbit: 715 x 2021 km, 97.4° (Epoch: 20 February)

Date Brightness Start Highest point End Pass type
(mag) Time Alt. Az. Time Alt. Az. Time Alt. Az.
21 Feb ? 01:19:52 10° NNE 01:28:36 35° ENE 01:28:36 35° ENE visible
21 Feb ? 03:10:52 10° N 03:21:46 71° WNW 03:21:46 71° WNW visible
21 Feb ? 05:03:49 10° N 05:11:42 23° NW 05:14:55 20° WNW visible
22 Feb ? 00:03:48 10° ENE 00:06:26 11° ENE 00:06:26 11° ENE visible
22 Feb ? 01:49:55 10° NNE 01:59:34 50° ENE 01:59:34 50° ENE visible
22 Feb ? 03:41:33 10° N 03:52:21 52° WNW 03:52:44 52° WNW visible
22 Feb ? 05:35:16 10° NNW 05:41:10 16° NW 05:45:53 12° WNW visible
23 Feb ? 00:30:57 10° NE 00:37:24 19° ENE 00:37:24 19° ENE visible
23 Feb ? 02:20:14 10° NNE 02:30:33 68° ENE 02:30:33 68° ENE visible
23 Feb ? 04:12:23 10° N 04:22:17 38° WNW 04:23:42 36° WNW visible
23 Feb ? 06:07:54 10° NNW 06:10:26 11° NW 06:12:58 10° NW visible
24 Feb ? 01:00:11 10° NNE 01:08:22 29° ENE 01:08:22 29° ENE visible
24 Feb ? 02:50:43 10° N 03:01:31 79° NNW 03:01:31 79° NNW visible
24 Feb ? 04:43:22 10° N 04:52:02 27° NW 04:54:40 25° WNW visible
25 Feb ? 01:30:03 10° NNE 01:39:19 41° ENE 01:39:19 41° ENE visible
25 Feb ? 03:21:21 10° N 03:32:28 61° WNW 03:32:28 61° WNW visible
25 Feb ? 05:14:37 10° N 05:21:34 19° NW 05:25:37 15° WNW visible
26 Feb ? 00:12:11 10° NE 00:17:07 14° ENE 00:17:07 14° ENE visible
26 Feb ? 02:00:15 10° NNE 02:10:16 58° ENE 02:10:16 58° ENE visible
26 Feb ? 03:52:07 10° N 04:02:30 44° WNW 04:03:25 43° WNW visible
26 Feb ? 05:46:26 10° NNW 05:50:54 13° NW 05:55:17 10° WNW visible
27 Feb ? 00:40:43 10° NNE 00:48:04 23° ENE 00:48:04 23° ENE visible
27 Feb ? 02:30:39 10° NNE 02:41:13 78° NE 02:41:13 78° NE visible
27 Feb ? 04:23:01 10° N 04:32:18 32° NW 04:34:22 30° WNW visible
28 Feb ? 01:10:18 10° NNE 01:19:00 34° ENE 01:19:00 34° ENE visible
28 Feb ? 03:01:13 10° N 03:12:09 71° WNW 03:12:09 71° WNW visible
28 Feb ? 04:54:08 10° N 05:01:54 23° NW 05:05:18 19° WNW visible
28 Feb ? 23:56:12 10° ENE 23:56:36 10° ENE 23:56:47 10° ENE visible
29 Feb ? 01:40:21 10° NNE 01:49:55 48° ENE 01:49:55 48° ENE visible
29 Feb ? 03:31:55 10° N 03:42:38 51° WNW 03:43:05 51° WNW visible
29 Feb ? 05:25:37 10° NNW 05:31:18 16° NW 05:36:13 11° WNW visible
01 Mar ? 00:21:35 10° NE 00:27:42 18° ENE 00:27:42 18° ENE visible
01 Mar ? 02:10:39 10° NNE 02:20:51 67° ENE 02:20:51 67° ENE visible
01 Mar ? 04:02:45 10° N 04:12:30 37° WNW 04:14:00 35° WNW visible
01 Mar ? 05:58:30 10° NNW 06:00:32 11° NW 06:02:33 10° NW visible
